Havre, MT

8:58 AM MST on February 06, 2016 (GMT -0700)
Havre City-County

Weather History for KHVR - December, 2012

Change the Weather History Date:

Wednesday, December 19, 2012

  Actual Average Record
Temperature  
Mean Temperature 20 °F 18 °F  
Max Temperature 32 °F 29 °F 62 °F (1886)
Min Temperature 8 °F 7 °F -30 °F (1929)
Degree Days  
Heating Degree Days 45 47  
Month to date heating degree days 711 850  
Since 1 July heating degree days 2698 2893  
Cooling Degree Days 0 0  
Month to date cooling degree days 0 0  
Year to date cooling degree days 507 387  
Moisture  
Dew Point 9 °F    
Average Humidity 68    
Maximum Humidity 92    
Minimum Humidity 43    
Precipitation  
Precipitation 0.00 in 0.01 in 0.30 in (1920)
Month to date precipitation 0.18 0.23  
Year to date precipitation 12.60 11.03  
Snow  
Snow 0.00 in 0.30 in 2.60 in (1920)
Month to date snowfall 2.0 4.1  
Since 1 July snowfall 20.0 11.7  
Snow Depth T in    
Sea Level Pressure  
Sea Level Pressure 29.99 in    
Wind  
Wind Speed 10 mph (WSW)    
Max Wind Speed 21 mph    
Max Gust Speed 25 mph    
Visibility 9 miles    
Events      
T = Trace of Precipitation, MM = Missing Value Source: NWS Daily Summary

Daily Weather History Graph

Daily Weather History Graph

Search for Another Location

Airport or City:

Trip Planner

Search our weather history database for the weather conditions in past years. The results will help you decide how hot, cold, wet, or windy it might be!

Date:

Astronomy

Dec. 19, 2012 Rise Set
Actual Time 8:07 AM MST 4:25 PM MST
Civil Twilight 7:30 AM MST 5:02 PM MST
Nautical Twilight 6:50 AM MST 5:42 PM MST
Astronomical Twilight 6:12 AM MST 6:20 PM MST
Moon 11:45 AM MST (12/19) No Moon Set
Length of Visible Light 9h 31m
Length of Day
8h 17m
Waxing Crescent, 45% of the Moon is Illuminated
Dec 19
Waxing Crescent
Dec 19
First Quarter
Dec 28
Full
Jan 4
Last Quarter
Jan 11
New

Hourly Weather History & Observations

Time (MST) Temp. Windchill Dew Point Humidity Pressure Visibility Wind Dir Wind Speed Gust Speed Precip Events Conditions
12:53 AM 18.0 °F 6.9 °F 14.0 °F 84% 29.94 in 8.0 mi West 9.2 mph - N/A   Partly Cloudy
1:53 AM 12.9 °F 3.8 °F 10.0 °F 88% 29.95 in 7.0 mi SW 5.8 mph - N/A   Clear
2:29 AM 14.0 °F 8.2 °F 10.4 °F 86% 29.84 in 5.0 mi WSW 3.5 mph - N/A   Mostly Cloudy
2:45 AM 12.2 °F 6.1 °F 10.4 °F 92% 29.84 in 5.0 mi West 3.5 mph - N/A   Scattered Clouds
2:53 AM 12.0 °F 4.1 °F 9.0 °F 88% 29.96 in 5.0 mi WSW 4.6 mph - N/A   Scattered Clouds
3:09 AM 12.2 °F 2.9 °F 10.4 °F 92% 29.84 in 5.0 mi WSW 5.8 mph - N/A   Mostly Cloudy
3:32 AM 10.4 °F -0.4 °F 8.6 °F 92% 29.85 in 7.0 mi WSW 6.9 mph - N/A   Scattered Clouds
3:53 AM 9.0 °F -4.2 °F 5.0 °F 84% 29.99 in 8.0 mi WSW 9.2 mph - N/A   Clear
4:53 AM 10.9 °F -2.6 °F 7.0 °F 84% 29.99 in 10.0 mi WSW 10.4 mph - N/A   Clear
5:53 AM 10.9 °F -2.6 °F 6.1 °F 81% 30.00 in 10.0 mi SW 10.4 mph - N/A   Clear
6:53 AM 12.0 °F -1.3 °F 5.0 °F 73% 30.03 in 10.0 mi SW 10.4 mph - N/A   Clear
7:53 AM 10.0 °F -2.9 °F 3.9 °F 76% 30.04 in 10.0 mi WSW 9.2 mph - N/A   Clear
8:53 AM 12.0 °F 0.5 °F 5.0 °F 73% 30.05 in 10.0 mi WSW 8.1 mph - N/A   Clear
9:53 AM 16.0 °F 6.3 °F 8.1 °F 71% 30.06 in 10.0 mi WSW 6.9 mph - N/A   Clear
10:53 AM 25.0 °F 11.3 °F 10.9 °F 55% 30.05 in 10.0 mi SW 18.4 mph - N/A   Clear
11:53 AM 26.1 °F 14.0 °F 12.0 °F 55% 30.04 in 10.0 mi SW 15.0 mph - N/A   Clear
12:53 PM 28.9 °F 16.5 °F 14.0 °F 54% 30.02 in 10.0 mi SW 18.4 mph - N/A   Clear
1:53 PM 30.9 °F 20.2 °F 14.0 °F 50% 30.02 in 10.0 mi SW 15.0 mph - N/A   Clear
2:53 PM 32.0 °F 23.6 °F 12.0 °F 44% 30.01 in 10.0 mi SW 10.4 mph - N/A   Clear
3:53 PM 28.0 °F 20.8 °F 10.9 °F 49% 30.03 in 10.0 mi SW 6.9 mph - N/A   Clear
4:53 PM 19.9 °F 10.1 °F 9.0 °F 62% 30.04 in 10.0 mi SSW 8.1 mph - N/A   Clear
5:53 PM 19.0 °F 9.0 °F 9.0 °F 65% 30.05 in 10.0 mi SW 8.1 mph - N/A   Clear
6:53 PM 15.8 °F 5.1 °F 8.6 °F 73% 29.91 in 10.0 mi SW 8.1 mph - N/A   Clear
7:53 PM 14.0 °F 2.0 °F 7.0 °F 74% 30.04 in 10.0 mi WSW 9.2 mph - N/A   Clear
8:53 PM 16.0 °F 4.4 °F 8.1 °F 71% 30.05 in 10.0 mi SW 9.2 mph - N/A   Clear
9:53 PM 12.9 °F 1.6 °F 7.0 °F 77% 30.03 in 10.0 mi WSW 8.1 mph - N/A   Clear
10:53 PM 17.1 °F 5.8 °F 8.1 °F 68% 30.00 in 10.0 mi WSW 9.2 mph - N/A   Clear
11:53 PM 21.9 °F 17.2 °F 9.0 °F 58% 29.99 in 10.0 mi WNW 3.5 mph - N/A   Clear